Lac Manouane East, Quebec

Past 24 Hour Conditions

Date / Time
(EDT)
Conditions Temp
(°C)
Humidity
(%)
Dew Point
(°C)
Wind
(km/h)
Pressure
(kPa)
Visibility
(km)
26 April 2015
19:00 N/A 4 76 0 NNE 14 N/A N/A
18:00 N/A 5 68 0 NE 18 N/A N/A
17:00 N/A 6 64 0 ENE 23 N/A N/A
16:00 N/A 6 62 0 ENE 25 N/A N/A
15:00 N/A 7   63 0 NE 23 N/A N/A
14:00 N/A 7   63 0 NE 14 N/A N/A
13:00 N/A 6 59 -1 ENE 23 N/A N/A
12:00 N/A 6 60 -1 E 21 N/A N/A
11:00 N/A 5 67 -1 ENE 26 N/A N/A
10:00 N/A 4 71 0 ENE 24 N/A N/A
9:00 N/A 3 85 1 NE 19 N/A N/A
8:00 N/A 2 90 0 NE 19 N/A N/A
7:00 N/A 2 89 0 NE 19 N/A N/A
6:00 N/A 2 91 0 NE 18 N/A N/A
5:00 N/A 2 90 0 NE 19 N/A N/A
4:00 N/A 2 91 1 NE 15 N/A N/A
3:00 N/A 2 91 1 NNE 14 N/A N/A
2:00 N/A 2 90 0 NNE 12 N/A N/A
1:00 N/A 2 90 0 NNE 14 N/A N/A
00:00 N/A 1   91 0 NNE 11 N/A N/A
25 April 2015
23:00 N/A 1   90 0 NE 11 N/A N/A
22:00 N/A 2 89 0 NE 16 N/A N/A
21:00 N/A 3 87 1 NE 14 N/A N/A
20:00 N/A 3 84 1 NNE 13 N/A N/A
19:00 N/A 4 78 1 NE 16 N/A N/A
N/A Not available
↑ Highest temperature
↓ Lowest temperature

If you require additional historical weather information, please visit Climate Data Online.

What we are doing

Date modified: